[[{"header":{"parameterUnit":"m.s-1","parameterCategory":1,"la1":30.2991,"la2":30.254,"lo1":-89.0895,"lo2":-89.0444,"dy":0.0017,"dx":0.0017,"nx":28,"ny":28,"refTime":"2023-08-23T09:00:00:Z","depth":0,"parameterNumber":2,"parameterNumberName":"U-component_of_WINDS"},"data":[0,0,0,0,0,0,0,0,0,0,0,0,0,0,0,0,0,0,0,0,0,0,0,0,0,0,0,0,0,0,0,0,0,0,0,0,0,0,0,0,0,0,0,0,0,0,0,0,0,0,0,0,0,0,0,0,0,0,1.1003,1.1004,0,1.1097,1.1098,1.1099,1.1111,1.111,1.1109,1.1108,1.12,1.1203,1.1207,0,0,0,0,0,0,0,0,0,0,0,0,0,1.083,1.0834,1.1003,1.1004,1.1005,1.1096,1.1098,1.1099,1.1111,1.111,1.1109,1.1108,1.1199,1.1203,1.1207,0,0,0,0,0,0,0,0,0,0,0,0,0,1.0913,1.0835,1.1003,1.1022,1.1025,1.1096,1.1098,1.1099,1.1111,1.111,1.1108,1.1107,1.1198,1.1203,1.1208,1.1265,0,0,1.1223,1.1225,0,0,0,0,0,0,0,0,1.0908,1.0919,1.1018,1.1021,1.1024,1.1091,1.1071,1.1155,1.1112,1.1078,1.1108,1.1107,1.1165,1.1172,1.1193,1.1269,1.1273,1.1223,1.1226,1.1228,1.1229,0,0,0,0,0,0,0,1.0902,1.0915,1.104,1.102,1.1023,1.1025,1.1035,1.1087,1.1128,1.1081,1.1082,1.1093,1.1166,1.1188,1.1195,1.1274,1.1223,1.1227,1.123,1.1232,1.1401,1.1403,0,0,0,0,0,0,1.0894,1.091,1.1037,1.1043,1.0962,1.1029,1.1041,1.1071,1.1127,1.1135,1.1094,1.1094,1.118,1.1189,1.1198,1.1268,1.1228,1.1233,1.1235,1.14,1.1402,1.1403,0,0,0,0,0,0,1.089,1.0905,1.1033,1.0977,1.0993,1.1034,1.1067,1.1073,1.1095,1.1137,1.1144,1.1109,1.1179,1.1191,1.1248,1.1272,1.1235,1.1239,1.1398,1.14,1.1403,1.1409,0,0,0,0,0,0,1.0885,1.0903,1.0926,1.0977,1.0996,1.1083,1.1069,1.1076,1.1104,1.1104,1.1153,1.116,1.1179,1.1241,1.1253,1.1278,1.1243,1.1396,1.1399,1.1402,1.1407,1.1412,1.1415,0,0,0,0,0,1.0879,1.0924,1.0927,1.0943,1.1026,1.1084,1.1095,1.1117,1.1106,1.1129,1.1156,1.1158,1.1267,1.1246,1.126,1.1287,1.1395,1.1398,1.1402,1.1405,1.1411,1.1415,0,0,0,0,0,0,1.0873,1.0931,1.0935,1.0998,1.1036,1.1086,1.1115,1.1122,1.1163,1.1161,1.1185,1.1196,1.1252,1.1275,1.1251,1.1345,1.133,1.1336,1.1328,1.1333,1.1337,1.133,1.1247,0,0,0,0,0,1.0879,1.0922,1.097,1.1021,1.104,1.1074,1.1101,1.1115,1.1154,1.117,1.1201,1.1239,1.1281,1.1309,1.135,1.1411,1.1421,1.1436,1.144,1.1443,1.1448,1.1482,1.1488,1.1415,1.1415,1.1415,0,0,1.0892,1.0929,1.0954,1.1021,1.1052,1.1095,1.1088,1.1134,1.1166,1.1177,1.1233,1.1257,1.13,1.1359,1.1387,1.138,1.1471,1.1448,1.145,1.1453,1.1486,1.1493,1.1499,1.1417,1.1417,1.1416,0,0,1.0937,1.097,1.1016,1.1048,1.1096,1.1118,1.1129,1.1178,1.1195,1.1252,1.1261,1.1299,1.1372,1.1402,1.1427,1.1485,1.1489,1.1498,1.1519,1.1551,1.1557,1.1562,1.1582,1.1589,1.1503,1.1503,1.1503,0,1.0946,1.1014,1.1038,1.1085,1.1113,1.1127,1.1173,1.1202,1.126,1.1279,1.1271,1.1363,1.1393,1.1459,1.1474,1.1494,1.1506,1.1492,1.1554,1.156,1.1565,1.1584,1.1592,1.1503,1.1503,1.1503,1.1503,0,1.1023,1.1069,1.11,1.1158,1.119,1.1236,1.1267,1.1296,1.1308,1.1331,1.1388,1.1425,1.1474,1.1491,1.1502,1.1558,1.1553,1.1549,1.1534,1.1572,1.1591,1.1598,1.1504,1.1504,1.1504,1.1504,0,0,1.1066,1.1138,1.1149,1.1175,1.1229,1.1265,1.1311,1.1361,1.1385,1.1425,1.1463,1.1525,1.1523,1.1551,1.1565,1.1594,1.1636,1.1587,1.1588,1.1594,1.1701,1.1702,1.1711,1.164,1.1641,1.1642,1.1697,0,1.1117,1.1202,1.1226,1.1296,1.1339,1.1353,1.1393,1.143,1.1453,1.1491,1.1516,1.1559,1.1553,1.157,1.1599,1.1625,1.1658,1.1622,1.1674,1.1676,1.1663,1.1721,1.1723,1.1772,1.1704,1.1705,1.1706,0,1.1188,1.1231,1.1307,1.1356,1.1374,1.141,1.1458,1.1495,1.1537,1.1551,1.1583,1.1595,1.1643,1.1626,1.1691,1.1666,1.1689,1.1705,1.1708,1.1713,1.1693,1.1727,1.1789,1.1796,1.1718,1.1717,1.1716,0,1.1212,1.1288,1.1343,1.1366,1.1424,1.1449,1.1474,1.1515,1.1543,1.1584,1.1603,1.1648,1.1672,1.1707,1.173,1.1716,1.1793,1.1778,1.1805,1.1805,1.182,1.1819,1.1886,1.1836,1.1836,1.1836,1.1836,0,1.1266,1.1311,1.1355,1.1389,1.144,1.1466,1.1516,1.1541,1.1577,1.1615,1.1629,1.1664,1.1694,1.1732,1.1751,1.1802,1.1813,1.1825,1.1829,1.1823,1.1822,1.1838,1.1835,1.1838,1.1838,1.1837,1.1837,0,1.13,1.1331,1.1392,1.1444,1.1457,1.1493,1.1536,1.1568,1.1592,1.164,1.1653,1.169,1.1736,1.1763,1.1821,1.1833,1.1889,1.1892,1.1876,1.1878,1.1903,1.19,1.1983,1.1995,1.1937,1.1938,1.1938,0,1.1332,1.1368,1.1424,1.1451,1.1477,1.1521,1.1551,1.1578,1.1608,1.1658,1.1685,1.1732,1.1772,1.1845,1.1876,1.192,1.1923,1.195,1.193,1.1923,1.1923,1.1921,1.1924,1.1952,1.1953,1.1953,1.1954,0,1.1386,1.14,1.1443,1.1492,1.1527,1.1566,1.1605,1.1626,1.166,1.1693,1.1741,1.1772,1.1832,1.1878,1.1926,1.195,1.1957,1.196,1.1968,1.1962,1.1951,1.1957,1.1884,1.1958,1.1957,1.1957,1.1957,1.1957,1.142,1.1453,1.1497,1.1545,1.1577,1.1613,1.1647,1.1676,1.1717,1.1769,1.1783,1.1833,1.1873,1.1938,1.1963,1.2002,1.1998,1.201,1.2013,1.2016,1.2016,1.1946,1.2011,1.2011,1.2011,1.2011,1.2011,0,1.1474,1.1504,1.1548,1.1602,1.164,1.1645,1.1689,1.1719,1.1764,1.1802,1.1841,1.1896,1.1942,1.1977,1.2023,1.2047,1.2052,1.2058,1.2056,1.2062,1.2018,1.2006,1.2054,1.2054,1.2054,1.2054,1.2054,1.2054,1.1507,1.1562,1.1581,1.1652,1.1681,1.1733,1.1757,1.179,1.182,1.1882,1.1921,1.1944,1.1981,1.203,1.2071,1.208,1.2096,1.2102,1.2111,1.207,1.2065,1.206,1.2049,1.2106,1.2106,1.2152,1.2152,1.2153]},{"header":{"parameterUnit":"m.s-1","parameterCategory":1,"la1":30.2991,"la2":30.254,"lo1":-89.0895,"lo2":-89.0444,"dy":0.0017,"dx":0.0017,"nx":28,"ny":28,"refTime":"2023-08-23T09:00:00:Z","depth":0,"parameterNumber":3,"parameterNumberName":"V-component_of_WINDS"},"data":[0,0,0,0,0,0,0,0,0,0,0,0,0,0,0,0,0,0,0,0,0,0,0,0,0,0,0,0,0,0,0,0,0,0,0,0,0,0,0,0,0,0,0,0,0,0,0,0,0,0,0,0,0,0,0,0,0,0,1.9809,1.9806,0,1.9563,1.956,1.9558,1.9458,1.9459,1.9459,1.946,1.9196,1.9188,1.9181,0,0,0,0,0,0,0,0,0,0,0,0,0,2.0177,2.0171,1.9809,1.9806,1.9803,1.9564,1.956,1.9557,1.9458,1.9459,1.946,1.946,1.9198,1.9189,1.918,0,0,0,0,0,0,0,0,0,0,0,0,0,1.9983,2.0169,1.981,1.9725,1.9715,1.9564,1.956,1.9556,1.9458,1.9459,1.946,1.9461,1.9201,1.919,1.9179,1.909,0,0,1.9144,1.9139,0,0,0,0,0,0,0,0,1.9994,1.9969,1.974,1.9731,1.9719,1.9543,1.9593,1.9399,1.9458,1.9555,1.946,1.9461,1.931,1.9289,1.9241,1.9078,1.9067,1.9143,1.9136,1.9131,1.9128,0,0,0,0,0,0,0,2.0008,1.9979,1.9711,1.9737,1.9724,1.9694,1.9668,1.9556,1.943,1.9547,1.9539,1.9512,1.9304,1.9252,1.9234,1.9063,1.9143,1.9133,1.9126,1.9122,1.8809,1.8807,0,0,0,0,0,0,2.0037,1.9991,1.9719,1.9704,1.9862,1.9687,1.9657,1.9598,1.9431,1.9406,1.9511,1.9508,1.9271,1.9247,1.9224,1.9106,1.9131,1.9121,1.9114,1.881,1.8809,1.8807,0,0,0,0,0,0,2.0045,2.0014,1.9729,1.9845,1.9807,1.968,1.9614,1.9593,1.9541,1.9404,1.938,1.9483,1.9271,1.924,1.9124,1.9095,1.9116,1.9105,1.8812,1.881,1.8808,1.8871,0,0,0,0,0,0,2.0056,2.0018,1.9986,1.9846,1.9801,1.9638,1.9612,1.9587,1.9523,1.9517,1.9371,1.9348,1.9269,1.9142,1.9113,1.908,1.9096,1.8814,1.8811,1.8808,1.8871,1.8872,1.8872,0,0,0,0,0,2.007,2.0012,1.9985,1.9953,1.976,1.9637,1.961,1.9525,1.9522,1.9486,1.9398,1.9352,1.9104,1.9131,1.9097,1.9061,1.8815,1.8812,1.8809,1.8871,1.8872,1.8872,0,0,0,0,0,0,2.0149,1.9992,1.9961,1.9857,1.9761,1.962,1.9574,1.9529,1.9429,1.9427,1.9321,1.9289,1.9181,1.9109,1.9141,1.8963,1.8956,1.8945,1.9014,1.9014,1.9014,1.9032,1.9087,0,0,0,0,0,2.0155,2.0073,1.9938,1.9859,1.9813,1.9702,1.9645,1.9587,1.9482,1.944,1.9343,1.9239,1.9136,1.9071,1.897,1.8861,1.8824,1.8819,1.8819,1.882,1.8812,1.8743,1.8738,1.8796,1.8796,1.8796,0,0,2.0165,2.007,2.0023,1.9872,1.9792,1.9703,1.9668,1.9577,1.9508,1.9424,1.9309,1.9234,1.911,1.8996,1.8941,1.8933,1.8788,1.8816,1.8818,1.8808,1.8739,1.8734,1.8729,1.8794,1.8794,1.8795,0,0,2.0139,2.006,1.9984,1.9904,1.9783,1.9709,1.9691,1.9555,1.9503,1.9387,1.9321,1.9235,1.9064,1.8977,1.891,1.8848,1.88,1.8817,1.8818,1.8753,1.8748,1.8744,1.8717,1.8709,1.881,1.881,1.881,0,2.0166,2.0035,1.9949,1.9861,1.9794,1.9718,1.9636,1.9561,1.9412,1.9365,1.9359,1.914,1.9051,1.8913,1.8898,1.8848,1.8819,1.8833,1.8757,1.8751,1.8745,1.8719,1.871,1.8813,1.8812,1.8812,1.8812,0,2.0071,1.9981,1.9933,1.9794,1.9721,1.9637,1.9534,1.947,1.9418,1.9344,1.9222,1.9114,1.8987,1.8951,1.8898,1.8804,1.8802,1.8779,1.8768,1.8744,1.8717,1.8706,1.8816,1.8815,1.8815,1.8814,0,0,2.0088,1.9903,1.9886,1.982,1.968,1.9605,1.9515,1.9395,1.934,1.9239,1.9156,1.9012,1.8988,1.8912,1.8849,1.8792,1.8744,1.8773,1.8769,1.8769,1.8627,1.8644,1.8634,1.8712,1.871,1.8708,1.8636,0,2.0041,1.9881,1.98,1.9672,1.9584,1.9508,1.9428,1.9331,1.9257,1.9168,1.9084,1.8982,1.8961,1.8914,1.8855,1.8763,1.8713,1.8767,1.8629,1.8626,1.866,1.8621,1.8639,1.8576,1.8626,1.8624,1.8622,0,1.9964,1.9866,1.9731,1.9598,1.9557,1.9488,1.9369,1.9286,1.9171,1.9121,1.9036,1.8974,1.887,1.8869,1.872,1.8759,1.8697,1.8643,1.8638,1.862,1.8621,1.8597,1.8555,1.8544,1.8606,1.8607,1.8608,0,1.9986,1.982,1.9717,1.9663,1.9506,1.9457,1.9389,1.9275,1.9207,1.9101,1.9054,1.8937,1.8872,1.878,1.8685,1.8694,1.8544,1.8537,1.8495,1.8497,1.8465,1.8468,1.8409,1.8432,1.8432,1.8432,1.8432,0,1.994,1.9859,1.9724,1.966,1.9565,1.947,1.9377,1.9302,1.9201,1.9116,1.9043,1.8964,1.8846,1.8751,1.8676,1.8561,1.8533,1.8486,1.8466,1.8491,1.8496,1.8447,1.8447,1.8429,1.843,1.843,1.8431,0,1.9949,1.9856,1.9737,1.9598,1.956,1.9496,1.9374,1.9305,1.9228,1.9122,1.9091,1.8968,1.8852,1.8749,1.8595,1.8544,1.8425,1.8403,1.8466,1.8454,1.8417,1.8421,1.8321,1.8301,1.8342,1.8342,1.8342,0,1.9925,1.9861,1.9715,1.9655,1.9588,1.9493,1.9422,1.9325,1.9254,1.9116,1.9063,1.8942,1.8841,1.8657,1.8551,1.8431,1.8402,1.8376,1.8383,1.8409,1.8397,1.8401,1.8391,1.8375,1.8375,1.8376,1.8376,0,1.989,1.9847,1.9751,1.9638,1.9557,1.9462,1.9365,1.9319,1.9201,1.9124,1.9007,1.8928,1.877,1.8649,1.8517,1.844,1.8385,1.8374,1.8357,1.838,1.8418,1.8393,1.8463,1.8376,1.8376,1.8376,1.8376,1.8376,1.9879,1.9817,1.9704,1.9598,1.9515,1.9425,1.9353,1.9266,1.9168,1.9034,1.8981,1.886,1.874,1.8558,1.848,1.838,1.837,1.8348,1.8341,1.8336,1.8338,1.8437,1.8356,1.8356,1.8356,1.8355,1.8355,0,1.9838,1.9761,1.9665,1.9531,1.9446,1.9408,1.9296,1.9226,1.9122,1.9017,1.8919,1.878,1.8661,1.8545,1.8418,1.836,1.8331,1.8329,1.8331,1.8313,1.8356,1.8381,1.8354,1.8354,1.8354,1.8354,1.8354,1.8354,1.9806,1.9698,1.9641,1.9488,1.9409,1.9293,1.9232,1.9146,1.9062,1.8911,1.8814,1.874,1.8628,1.8492,1.8379,1.8347,1.8302,1.8306,1.8267,1.8309,1.8311,1.8312,1.8335,1.8298,1.8298,1.8232,1.8231,1.8231]}]]